VIR810P EGCC-EGPH

Flight info

Callsign VIR810P
Flight time 0h 36m
Altitude 24000
Route POL N601 INPIP
Aircraft A35K/H-SDE2E3GHIJ3J4J5LM1ORWXY/LB1D1

Departure

Time 2026-04-22 11:15
Airport Manchester Airport (EGCC)

Arrival

Time 2026-04-22 11:51
Airport Edinburgh Airport (EGPH)
Time Latitude Longitude Altitude Speed Heading
2026-04-22 10:52 53.36237 -2.27962 263 ft 0 kts 82°
2026-04-22 11:05 53.36236 -2.27988 263 ft 2 kts 94°
2026-04-22 11:05 53.36239 -2.28015 263 ft 2 kts 112°
2026-04-22 11:05 53.36248 -2.28039 267 ft 2 kts 136°
2026-04-22 11:06 53.36261 -2.28054 267 ft 2 kts 158°
2026-04-22 11:06 53.36277 -2.28062 264 ft 2 kts 175°
2026-04-22 11:06 53.36288 -2.28062 264 ft 1 kts 188°
2026-04-22 11:09 53.36263 -2.28071 261 ft 7 kts 194°
2026-04-22 11:09 53.36203 -2.28066 261 ft 11 kts 157°
2026-04-22 11:10 53.36137 -2.27972 261 ft 14 kts 137°
2026-04-22 11:10 53.36052 -2.27851 261 ft 18 kts 154°
2026-04-22 11:10 53.35920 -2.27847 261 ft 21 kts 186°
2026-04-22 11:10 53.35796 -2.27868 261 ft 20 kts 185°
2026-04-22 11:11 53.35636 -2.27894 256 ft 26 kts 186°
2026-04-22 11:11 53.35467 -2.27930 252 ft 17 kts 199°
2026-04-22 11:11 53.35357 -2.28082 247 ft 24 kts 223°
2026-04-22 11:11 53.35225 -2.28312 240 ft 31 kts 230°
2026-04-22 11:12 53.35078 -2.28617 231 ft 33 kts 231°
2026-04-22 11:12 53.34953 -2.28849 228 ft 26 kts 226°
2026-04-22 11:12 53.34847 -2.29035 222 ft 22 kts 227°
2026-04-22 11:12 53.34759 -2.29212 218 ft 19 kts 231°
2026-04-22 11:13 53.34716 -2.29288 220 ft 11 kts 221°
2026-04-22 11:13 53.34695 -2.29311 218 ft 0 kts 210°
2026-04-22 11:13 53.34695 -2.29312 218 ft 1 kts 210°
2026-04-22 11:13 53.34659 -2.29335 211 ft 9 kts 194°
2026-04-22 11:14 53.34576 -2.29321 209 ft 15 kts 159°
2026-04-22 11:14 53.34549 -2.29208 216 ft 11 kts 68°
2026-04-22 11:14 53.34659 -2.28976 218 ft 52 kts 52°
2026-04-22 11:14 53.34891 -2.28492 230 ft 108 kts 51°
2026-04-22 11:15 53.35517 -2.27232 431 ft 163 kts 53°
2026-04-22 11:15 53.36255 -2.25735 1489 ft 168 kts 54°
2026-04-22 11:15 53.37039 -2.24073 2316 ft 197 kts 54°
2026-04-22 11:15 53.37934 -2.22128 2912 ft 222 kts 54°
2026-04-22 11:16 53.38892 -2.20039 3855 ft 229 kts 55°
2026-04-22 11:16 53.39879 -2.17883 4571 ft 236 kts 56°
2026-04-22 11:16 53.40889 -2.15696 4933 ft 239 kts 56°
2026-04-22 11:16 53.41926 -2.13505 5174 ft 242 kts 53°
2026-04-22 11:17 53.43261 -2.11689 5872 ft 255 kts 33°
2026-04-22 11:17 53.45014 -2.10859 6819 ft 270 kts 12°
2026-04-22 11:17 53.46916 -2.10684 7674 ft 277 kts
2026-04-22 11:17 53.48855 -2.10607 8585 ft 280 kts
2026-04-22 11:18 53.50817 -2.10517 9524 ft 284 kts
2026-04-22 11:18 53.52806 -2.10409 10456 ft 288 kts
2026-04-22 11:18 53.54863 -2.10285 10979 ft 306 kts
2026-04-22 11:18 53.57073 -2.10233 11337 ft 328 kts
2026-04-22 11:19 53.59413 -2.10261 11881 ft 341 kts
2026-04-22 11:19 53.61802 -2.10286 12627 ft 347 kts
2026-04-22 11:19 53.64232 -2.10299 13405 ft 351 kts
2026-04-22 11:19 53.66667 -2.10311 14187 ft 356 kts
2026-04-22 11:20 53.69191 -2.10321 14898 ft 361 kts
2026-04-22 11:20 53.71686 -2.10326 15577 ft 366 kts
2026-04-22 11:20 53.74249 -2.10589 16268 ft 374 kts 353°
2026-04-22 11:20 53.76784 -2.11694 16990 ft 380 kts 345°
2026-04-22 11:21 53.79286 -2.13221 17684 ft 385 kts 340°
2026-04-22 11:21 53.81776 -2.14965 18369 ft 390 kts 339°
2026-04-22 11:21 53.84275 -2.16791 19005 ft 394 kts 338°
2026-04-22 11:21 53.86807 -2.18644 19615 ft 397 kts 338°
2026-04-22 11:22 53.89351 -2.20467 20271 ft 399 kts 339°
2026-04-22 11:22 53.91919 -2.22273 20942 ft 400 kts 339°
2026-04-22 11:22 53.94498 -2.24067 21581 ft 402 kts 339°
2026-04-22 11:22 53.97102 -2.25865 22201 ft 405 kts 339°
2026-04-22 11:23 53.99720 -2.27665 22821 ft 407 kts 339°
2026-04-22 11:23 54.02354 -2.29475 23474 ft 409 kts 339°
2026-04-22 11:23 54.04999 -2.31295 24070 ft 412 kts 339°
2026-04-22 11:23 54.07665 -2.33136 24369 ft 413 kts 339°
2026-04-22 11:24 54.10293 -2.34959 24443 ft 404 kts 338°
2026-04-22 11:24 54.12883 -2.36758 24454 ft 399 kts 339°
2026-04-22 11:24 54.15453 -2.38546 24447 ft 398 kts 339°
2026-04-22 11:24 54.18012 -2.40321 24445 ft 398 kts 339°
2026-04-22 11:25 54.20548 -2.42082 24453 ft 398 kts 338°
2026-04-22 11:25 54.23114 -2.43869 24451 ft 398 kts 339°
2026-04-22 11:25 54.25676 -2.45654 24455 ft 398 kts 339°
2026-04-22 11:25 54.28240 -2.47444 24452 ft 398 kts 338°
2026-04-22 11:26 54.30804 -2.49235 24458 ft 398 kts 338°
2026-04-22 11:26 54.33366 -2.51028 24462 ft 398 kts 338°
2026-04-22 11:26 54.35931 -2.52826 24459 ft 398 kts 338°
2026-04-22 11:26 54.38492 -2.54623 24463 ft 398 kts 338°
2026-04-22 11:27 54.41059 -2.56425 24462 ft 398 kts 338°
2026-04-22 11:27 54.43619 -2.58225 24467 ft 398 kts 338°
2026-04-22 11:27 54.46180 -2.60028 24466 ft 398 kts 338°
2026-04-22 11:27 54.48745 -2.61835 24470 ft 398 kts 338°
2026-04-22 11:28 54.51308 -2.63644 24471 ft 398 kts 338°
2026-04-22 11:28 54.53839 -2.65433 24472 ft 398 kts 338°
2026-04-22 11:28 54.56402 -2.67251 24470 ft 398 kts 338°
2026-04-22 11:28 54.58960 -2.69071 24469 ft 398 kts 338°
2026-04-22 11:29 54.61521 -2.70893 24474 ft 398 kts 338°
2026-04-22 11:29 54.64077 -2.72712 24473 ft 398 kts 338°
2026-04-22 11:29 54.66632 -2.74534 24476 ft 398 kts 338°
2026-04-22 11:29 54.69195 -2.76363 24471 ft 398 kts 338°
2026-04-22 11:30 54.71625 -2.78097 24474 ft 398 kts 338°
2026-04-22 11:30 54.74189 -2.79927 24477 ft 398 kts 338°
2026-04-22 11:30 54.76744 -2.81759 24476 ft 398 kts 338°
2026-04-22 11:30 54.79307 -2.83600 24476 ft 398 kts 338°
2026-04-22 11:31 54.81864 -2.85436 24480 ft 398 kts 338°
2026-04-22 11:31 54.84422 -2.87278 24482 ft 398 kts 338°
2026-04-22 11:31 54.86976 -2.89118 24481 ft 398 kts 338°
2026-04-22 11:31 54.89542 -2.90967 24482 ft 398 kts 338°
2026-04-22 11:32 54.92098 -2.92814 24480 ft 398 kts 338°
2026-04-22 11:32 54.94654 -2.94665 24483 ft 398 kts 338°
2026-04-22 11:32 54.97176 -2.96492 24486 ft 398 kts 338°
2026-04-22 11:32 54.99782 -2.98376 24309 ft 405 kts 338°
2026-04-22 11:33 55.02350 -3.00241 23587 ft 407 kts 338°
2026-04-22 11:33 55.04980 -3.02157 22757 ft 411 kts 338°
2026-04-22 11:33 55.07613 -3.04076 22131 ft 409 kts 338°
2026-04-22 11:33 55.10233 -3.05989 21536 ft 407 kts 338°
2026-04-22 11:34 55.12838 -3.07892 20937 ft 405 kts 338°
2026-04-22 11:34 55.15427 -3.09787 20328 ft 403 kts 338°
2026-04-22 11:34 55.18057 -3.11709 19732 ft 415 kts 338°
2026-04-22 11:34 55.20778 -3.13704 19048 ft 420 kts 338°
2026-04-22 11:35 55.23432 -3.15654 18399 ft 417 kts 338°
2026-04-22 11:35 55.26023 -3.17565 18074 ft 387 kts 338°
2026-04-22 11:35 55.28415 -3.19308 17649 ft 359 kts 340°
2026-04-22 11:35 55.30771 -3.20229 16908 ft 340 kts
2026-04-22 11:36 55.33086 -3.20048 16220 ft 330 kts
2026-04-22 11:36 55.35369 -3.19656 15747 ft 329 kts
2026-04-22 11:36 55.37641 -3.19267 15346 ft 327 kts
2026-04-22 11:36 55.39894 -3.18895 14950 ft 324 kts
2026-04-22 11:37 55.42131 -3.18535 14556 ft 321 kts
2026-04-22 11:37 55.44350 -3.18182 14133 ft 319 kts
2026-04-22 11:37 55.46554 -3.17833 13680 ft 317 kts
2026-04-22 11:37 55.48739 -3.17489 13212 ft 314 kts
2026-04-22 11:38 55.50913 -3.17145 12776 ft 312 kts
2026-04-22 11:38 55.53066 -3.16804 12338 ft 310 kts
2026-04-22 11:38 55.57318 -3.16138 11355 ft 296 kts
2026-04-22 11:39 55.59327 -3.15825 10828 ft 283 kts
2026-04-22 11:39 55.61251 -3.15525 10286 ft 274 kts
2026-04-22 11:39 55.63137 -3.15227 9704 ft 270 kts
2026-04-22 11:39 55.65002 -3.14929 9097 ft 268 kts
2026-04-22 11:40 55.66873 -3.14628 8479 ft 274 kts
2026-04-22 11:40 55.68801 -3.14318 7853 ft 280 kts
2026-04-22 11:40 55.70707 -3.14047 7258 ft 270 kts
2026-04-22 11:40 55.72527 -3.14630 6679 ft 267 kts 338°
2026-04-22 11:41 55.73990 -3.16638 6341 ft 268 kts 309°
2026-04-22 11:41 55.74808 -3.19578 6098 ft 266 kts 285°
2026-04-22 11:41 55.75225 -3.22761 5782 ft 265 kts 280°
2026-04-22 11:41 55.75572 -3.25955 5529 ft 263 kts 279°
2026-04-22 11:42 55.75905 -3.29098 5326 ft 262 kts 279°
2026-04-22 11:42 55.76240 -3.32268 5114 ft 261 kts 279°
2026-04-22 11:42 55.76573 -3.35466 4898 ft 260 kts 279°
2026-04-22 11:42 55.76895 -3.38583 4730 ft 259 kts 279°
2026-04-22 11:43 55.77213 -3.41683 4543 ft 252 kts 279°
2026-04-22 11:43 55.77518 -3.44713 4374 ft 247 kts 279°
2026-04-22 11:43 55.77815 -3.47715 4183 ft 247 kts 279°
2026-04-22 11:43 55.78113 -3.50716 4027 ft 246 kts 279°
2026-04-22 11:44 55.78408 -3.53721 3994 ft 247 kts 279°
2026-04-22 11:44 55.78694 -3.56709 3984 ft 240 kts 279°
2026-04-22 11:44 55.78955 -3.59450 4022 ft 211 kts 279°
2026-04-22 11:44 55.79202 -3.61976 4014 ft 205 kts 279°
2026-04-22 11:45 55.79447 -3.64441 3792 ft 202 kts 279°
2026-04-22 11:45 55.79812 -3.66835 3486 ft 202 kts 297°
2026-04-22 11:45 55.80772 -3.68578 3182 ft 196 kts 336°
2026-04-22 11:45 55.82030 -3.68934 3002 ft 177 kts 15°
2026-04-22 11:46 55.83123 -3.68069 2993 ft 171 kts 37°
2026-04-22 11:46 55.84111 -3.66907 2991 ft 170 kts 39°
2026-04-22 11:46 55.85076 -3.65701 2991 ft 169 kts 39°
2026-04-22 11:46 55.85835 -3.64161 2991 ft 161 kts 59°
2026-04-22 11:47 55.86398 -3.62545 2993 ft 148 kts 60°
2026-04-22 11:47 55.86928 -3.61020 2998 ft 143 kts 61°
2026-04-22 11:47 55.87444 -3.59497 2961 ft 146 kts 61°
2026-04-22 11:47 55.87979 -3.57945 2766 ft 146 kts 61°
2026-04-22 11:48 55.88504 -3.56412 2548 ft 145 kts 61°
2026-04-22 11:48 55.89027 -3.54872 2349 ft 145 kts 61°
2026-04-22 11:48 55.89549 -3.53334 2148 ft 145 kts 61°
2026-04-22 11:48 55.90068 -3.51804 1934 ft 144 kts 62°
2026-04-22 11:49 55.90585 -3.50276 1728 ft 143 kts 61°
2026-04-22 11:49 55.91102 -3.48755 1530 ft 144 kts 61°
2026-04-22 11:49 55.91617 -3.47236 1323 ft 141 kts 60°
2026-04-22 11:49 55.92104 -3.45802 1122 ft 131 kts 61°
2026-04-22 11:50 55.92556 -3.44466 945 ft 121 kts 61°
2026-04-22 11:50 55.92975 -3.43227 787 ft 113 kts 60°
2026-04-22 11:50 55.93379 -3.42034 623 ft 112 kts 60°
2026-04-22 11:50 55.93779 -3.40859 447 ft 111 kts 59°
2026-04-22 11:51 55.94182 -3.39661 292 ft 113 kts 59°
2026-04-22 11:51 55.94589 -3.38464 143 ft 112 kts 59°
2026-04-22 11:51 55.94953 -3.37387 114 ft 80 kts 59°
2026-04-22 11:51 55.95140 -3.36834 118 ft 42 kts 59°
2026-04-22 11:52 55.95302 -3.36364 111 ft 43 kts 58°
2026-04-22 11:52 55.95448 -3.35930 112 ft 38 kts 59°
2026-04-22 11:52 55.95554 -3.35615 111 ft 16 kts 60°
2026-04-22 11:52 55.95524 -3.35468 110 ft 15 kts 146°
2026-04-22 11:53 55.95428 -3.35442 113 ft 16 kts 218°
2026-04-22 11:53 55.95356 -3.35626 111 ft 21 kts 239°
2026-04-22 11:53 55.95265 -3.35889 112 ft 28 kts 239°
2026-04-22 11:53 55.95190 -3.36111 111 ft 12 kts 238°
2026-04-22 11:54 55.95127 -3.36122 113 ft 11 kts 130°
2026-04-22 11:54 55.95085 -3.35976 113 ft 13 kts 115°
2026-04-22 11:54 55.95034 -3.35846 110 ft 11 kts 156°
2026-04-22 11:54 55.94972 -3.35920 112 ft 11 kts 248°
2026-04-22 11:55 55.94954 -3.36023 111 ft 0 kts 253°